QPF
0.02 0.02 0.03 0.06 0.11 0.10 0.06 0.05 0.06 0.09 0.11 0.11 0.11 0.09 0.08 0.10 0.07 0.06 0.06 0.07 0.09 0.10 0.11 0.13 0.12 0.06 0.05 0.05 0.05 0.06 0.06 0.06 0.04 0.04 0.04 0.02 0.01 0.01 0.00 0.00 0.00 0.01 0.01
0.02 0.02 0.02 0.03 0.05 0.09 0.09 0.08 0.07 0.08 0.09 0.09 0.09 0.11 0.10 0.10 0.08 0.06 0.06 0.06 0.07 0.09 0.09 0.11 0.13 0.11 0.07 0.05 0.04 0.04 0.04 0.05 0.06 0.06 0.05 0.05 0.04 0.02 0.01 0.01 0.00 0.01 0.01
0.01 0.01 0.02 0.02 0.03 0.05 0.07 0.08 0.07 0.08 0.09 0.09 0.09 0.11 0.12 0.10 0.08 0.06 0.05 0.05 0.06 0.07 0.08 0.09 0.12 0.12 0.10 0.06 0.04 0.03 0.02 0.02 0.03 0.05 0.05 0.06 0.05 0.04 0.02 0.01 0.00 0.00 0.00
0.01 0.01 0.01 0.01 0.01 0.03 0.06 0.06 0.05 0.04 0.06 0.08 0.08 0.09 0.12 0.11 0.08 0.07 0.06 0.05 0.05 0.06 0.06 0.07 0.09 0.12 0.12 0.10 0.06 0.03 0.02 0.02 0.01 0.02 0.02 0.03 0.04 0.04 0.03 0.02 0.01 0.00 0.00
0.00 0.00 0.01 0.01 0.01 0.01 0.03 0.04 0.03 0.02 0.03 0.05 0.05 0.07 0.10 0.12 0.11 0.09 0.07 0.06 0.05 0.05 0.05 0.05 0.06 0.09 0.10 0.09 0.08 0.05 0.02 0.02 0.01 0.01 0.01 0.01 0.02 0.02 0.02 0.02 0.01 0.01 0.00
0.00 0.00 0.01 0.00 0.01 0.01 0.01 0.02 0.03 0.02 0.02 0.04 0.07 0.08 0.08 0.10 0.11 0.08 0.07 0.05 0.05 0.05 0.05 0.05 0.05 0.06 0.08 0.06 0.04 0.04 0.03 0.02 0.01 0.01 0.01 0.01 0.01 0.01 0.01 0.01 0.01 0.01 0.00
0.00 0.01 0.01 0.00 0.01 0.01 0.01 0.01 0.02 0.02 0.02 0.03 0.06 0.08 0.07 0.07 0.09 0.06 0.04 0.04 0.03 0.04 0.05 0.05 0.04 0.05 0.07 0.06 0.04 0.02 0.02 0.01 0.01 0.01 0.01 0.01 0.01 0.01 0.01 0.01 0.01 0.00 0.00
0.00 0.01 0.01 0.00 0.01 0.01 0.01 0.01 0.01 0.02 0.02 0.03 0.03 0.04 0.06 0.06 0.07 0.05 0.03 0.03 0.03 0.02 0.03 0.04 0.03 0.03 0.04 0.04 0.04 0.03 0.02 0.02 0.01 0.01 0.01 0.01 0.00 0.00 0.00 0.00 0.00 0.00 0.00
0.00 0.01 0.02 0.01 0.01 0.01 0.01 0.01 0.01 0.02 0.02 0.03 0.03 0.03 0.03 0.04 0.04 0.04 0.03 0.02 0.02 0.02 0.02 0.02 0.03 0.03 0.03 0.03 0.03 0.03 0.03 0.02 0.02 0.01 0.01 0.01 0.01 0.00 0.00 0.00 0.00 0.01 0.01
0.01 0.01 0.02 0.01 0.01 0.01 0.01 0.02 0.02 0.02 0.02 0.03 0.04 0.03 0.03 0.03 0.03 0.03 0.02 0.02 0.02 0.02 0.02 0.02 0.02 0.03 0.03 0.03 0.03 0.03 0.03 0.02 0.02 0.01 0.01 0.01 0.01 0.01 0.01 0.00 0.00 0.01 0.01
0.01 0.02 0.03 0.01 0.01 0.01 0.01 0.02 0.02 0.02 0.02 0.02 0.02 0.03 0.03 0.04 0.03 0.02 0.02 0.02 0.02 0.02 0.02 0.02 0.02 0.02 0.02 0.02 0.02 0.02 0.03 0.02 0.02 0.01 0.01 0.01 0.00 0.01 0.01 0.01 0.01 0.01 0.01
0.02 0.03 0.03 0.01 0.01 0.01 0.01 0.02 0.03 0.03 0.03 0.02 0.02 0.02 0.02 0.03 0.03 0.02 0.02 0.02 0.02 0.01 0.02 0.02 0.02 0.02 0.02 0.02 0.02 0.01 0.02 0.02 0.02 0.01 0.01 0.01 0.01 0.01 0.01 0.01 0.01 0.01 0.01
0.02 0.03 0.02 0.01 0.01 0.01 0.01 0.02 0.02 0.02 0.02 0.02 0.02 0.01 0.01 0.02 0.02 0.01 0.01 0.01 0.01 0.01 0.01 0.02 0.02 0.01 0.01 0.02 0.02 0.02 0.02 0.02 0.02 0.01 0.01 0.01 0.01 0.01 0.00 0.01 0.01 0.01 0.01
0.01 0.02 0.02 0.01 0.01 0.01 0.01 0.01 0.01 0.01 0.01 0.01 0.01 0.01 0.01 0.01 0.01 0.01 0.01 0.01 0.01 0.01 0.01 0.02 0.02 0.01 0.01 0.01 0.02 0.02 0.02 0.02 0.02 0.01 0.01 0.01 0.01 0.01 0.00 0.01 0.01 0.01 0.01
0.00 0.01 0.01 0.01 0.00 0.01 0.01 0.01 0.01 0.00 0.00 0.01 0.01 0.00 0.00 0.01 0.01 0.01 0.01 0.01 0.02 0.01 0.01 0.01 0.02 0.01 0.01 0.01 0.01 0.01 0.02 0.02 0.02 0.02 0.01 0.01 0.01 0.01 0.01 0.01 0.01 0.01 0.01
0.01 0.01 0.00 0.00 0.00 0.00 0.00 0.01 0.01 0.00 0.00 0.00 0.00 0.00 0.01 0.01 0.01 0.01 0.01 0.01 0.01 0.01 0.01 0.01 0.01 0.01 0.01 0.01 0.01 0.02 0.02 0.02 0.02 0.02 0.02 0.01 0.01 0.02 0.02 0.01 0.02 0.02 0.01
0.00 0.00 0.00 0.00 0.00 0.00 0.00 0.01 0.01 0.01 0.00 0.00 0.00 0.00 0.01 0.01 0.01 0.01 0.01 0.01 0.01 0.01 0.01 0.01 0.01 0.01 0.01 0.01 0.01 0.01 0.01 0.01 0.01 0.01 0.01 0.01 0.01 0.03 0.02 0.02 0.02 0.02 0.02
0.00 0.00 0.00 0.00 0.00 0.00 0.00 0.00 0.01 0.01 0.01 0.00 0.00 0.00 0.01 0.01 0.01 0.02 0.01 0.01 0.01 0.01 0.01 0.01 0.01 0.01 0.01 0.01 0.01 0.01 0.01 0.01 0.01 0.02 0.01 0.01 0.00 0.01 0.02 0.02 0.02 0.02 0.02
0.00 0.00 0.00 0.00 0.01 0.01 0.00 0.00 0.01 0.01 0.01 0.01 0.01 0.01 0.01 0.01 0.01 0.01 0.01 0.01 0.01 0.01 0.01 0.01 0.01 0.01 0.01 0.01 0.01 0.01 0.02 0.02 0.02 0.02 0.02 0.01 0.01 0.01 0.02 0.02 0.02 0.02 0.02
0.00 0.00 0.00 0.00 0.00 0.01 0.01 0.01 0.01 0.01 0.01 0.01 0.01 0.01 0.01 0.01 0.01 0.01 0.01 0.01 0.01 0.01 0.01 0.01 0.01 0.01 0.01 0.01 0.01 0.01 0.02 0.03 0.03 0.02 0.02 0.01 0.01 0.01 0.02 0.02 0.02 0.02 0.02
0.00 0.00 0.00 0.00 0.00 0.01 0.01 0.02 0.02 0.02 0.01 0.01 0.01 0.01 0.01 0.01 0.01 0.01 0.01 0.01 0.01 0.01 0.01 0.01 0.01 0.01 0.01 0.01 0.01 0.01 0.02 0.03 0.03 0.02 0.02 0.02 0.02 0.02 0.02 0.02 0.02 0.02 0.02
0.01 0.00 0.00 0.00 0.00 0.00 0.01 0.01 0.01 0.02 0.02 0.02 0.02 0.02 0.01 0.01 0.01 0.01 0.01 0.01 0.01 0.01 0.01 0.01 0.01 0.01 0.01 0.01 0.01 0.01 0.02 0.02 0.02 0.02 0.01 0.02 0.02 0.02 0.02 0.02 0.02 0.02 0.02
0.01 0.00 0.00 0.00 0.00 0.00 0.00 0.00 0.01 0.01 0.01 0.02 0.02 0.03 0.02 0.02 0.02 0.02 0.02 0.02 0.02 0.01 0.01 0.01 0.01 0.01 0.01 0.00 0.01 0.01 0.01 0.02 0.01 0.01 0.01 0.02 0.02 0.02 0.02 0.02 0.02 0.02 0.02
0.00 0.00 0.00 0.00 0.00 0.00 0.00 0.00 0.00 0.00 0.01 0.01 0.01 0.01 0.01 0.02 0.02 0.02 0.02 0.02 0.02 0.02 0.01 0.01 0.01 0.01 0.01 0.00 0.00 0.01 0.01 0.01 0.01 0.01 0.01 0.01 0.01 0.01 0.01 0.01 0.01 0.02 0.02
0.00 0.00 0.00 0.00 0.00 0.00 0.00 0.00 0.00 0.00 0.00 0.00 0.00 0.01 0.01 0.00 0.01 0.01 0.01 0.01 0.01 0.01 0.01 0.01 0.01 0.01 0.01 0.01 0.01 0.01 0.01 0.01 0.01 0.01 0.01 0.00 0.00 0.00 0.01 0.01 0.01 0.01 0.02
0.00 0.00 0.00 0.00 0.00 0.01 0.01 0.01 0.01 0.00 0.00 0.00 0.00 0.01 0.01 0.01 0.01 0.01 0.01 0.01 0.01 0.01 0.01 0.02 0.02 0.01 0.01 0.01 0.01 0.01 0.01 0.01 0.01 0.01 0.01 0.01 0.01 0.01 0.01 0.01 0.01 0.01 0.02
MSLP
1005.77 1006.35 1007.07 1007.88 1008.75 1009.62 1010.48 1011.30 1012.06 1012.76 1013.40 1013.98 1014.52 1015.01 1015.47 1015.91 1016.33 1016.71 1017.07 1017.39 1017.67 1017.93 1018.16 1018.39 1018.62 1018.88 1019.19 1019.53 1019.92 1020.34 1020.77 1021.18 1021.58 1021.92 1022.22 1022.46 1022.66 1022.82 1022.95 1023.07 1023.18 1023.28 1023.38
1005.17 1005.81 1006.58 1007.43 1008.32 1009.22 1010.09 1010.93 1011.72 1012.45 1013.13 1013.76 1014.34 1014.87 1015.36 1015.82 1016.24 1016.64 1017.00 1017.33 1017.64 1017.91 1018.17 1018.41 1018.65 1018.91 1019.19 1019.51 1019.85 1020.23 1020.62 1021.02 1021.39 1021.74 1022.05 1022.31 1022.53 1022.72 1022.87 1023.01 1023.14 1023.26 1023.39
1004.51 1005.20 1006.01 1006.90 1007.81 1008.72 1009.61 1010.47 1011.28 1012.05 1012.76 1013.43 1014.04 1014.61 1015.13 1015.60 1016.05 1016.46 1016.84 1017.19 1017.53 1017.84 1018.13 1018.40 1018.66 1018.92 1019.18 1019.47 1019.77 1020.10 1020.44 1020.80 1021.16 1021.50 1021.82 1022.10 1022.34 1022.55 1022.73 1022.88 1023.03 1023.17 1023.32
1003.80 1004.53 1005.38 1006.28 1007.21 1008.14 1009.03 1009.90 1010.73 1011.53 1012.27 1012.98 1013.62 1014.22 1014.77 1015.26 1015.73 1016.16 1016.57 1016.97 1017.35 1017.72 1018.06 1018.38 1018.67 1018.94 1019.19 1019.45 1019.72 1020.00 1020.30 1020.63 1020.96 1021.30 1021.62 1021.91 1022.17 1022.39 1022.58 1022.75 1022.90 1023.06 1023.22
1003.10 1003.85 1004.71 1005.63 1006.56 1007.48 1008.37 1009.24 1010.09 1010.90 1011.67 1012.40 1013.08 1013.71 1014.28 1014.81 1015.30 1015.77 1016.22 1016.67 1017.12 1017.55 1017.95 1018.33 1018.66 1018.96 1019.23 1019.48 1019.72 1019.98 1020.25 1020.54 1020.86 1021.19 1021.51 1021.81 1022.08 1022.31 1022.51 1022.67 1022.82 1022.96 1023.11
1002.47 1003.22 1004.07 1004.97 1005.88 1006.78 1007.66 1008.51 1009.36 1010.18 1010.97 1011.73 1012.44 1013.09 1013.70 1014.26 1014.78 1015.30 1015.80 1016.31 1016.82 1017.32 1017.80 1018.25 1018.64 1018.98 1019.28 1019.54 1019.78 1020.02 1020.27 1020.56 1020.86 1021.19 1021.51 1021.82 1022.09 1022.33 1022.51 1022.67 1022.80 1022.92 1023.04
1001.98 1002.70 1003.51 1004.37 1005.23 1006.08 1006.92 1007.75 1008.58 1009.40 1010.21 1010.99 1011.73 1012.42 1013.05 1013.65 1014.22 1014.78 1015.34 1015.90 1016.48 1017.05 1017.60 1018.11 1018.56 1018.95 1019.29 1019.57 1019.83 1020.07 1020.34 1020.62 1020.93 1021.26 1021.58 1021.90 1022.18 1022.41 1022.59 1022.73 1022.83 1022.92 1023.02
1001.68 1002.35 1003.09 1003.87 1004.65 1005.43 1006.21 1007.00 1007.81 1008.62 1009.44 1010.23 1011.00 1011.72 1012.40 1013.03 1013.64 1014.23 1014.84 1015.45 1016.08 1016.71 1017.32 1017.89 1018.40 1018.84 1019.21 1019.53 1019.81 1020.08 1020.36 1020.66 1020.98 1021.32 1021.66 1021.99 1022.28 1022.51 1022.69 1022.81 1022.90 1022.96 1023.02
1001.60 1002.19 1002.83 1003.50 1004.18 1004.87 1005.58 1006.31 1007.08 1007.89 1008.70 1009.51 1010.30 1011.05 1011.76 1012.43 1013.06 1013.69 1014.33 1014.98 1015.64 1016.30 1016.95 1017.56 1018.11 1018.60 1019.01 1019.36 1019.68 1019.98 1020.28 1020.60 1020.95 1021.31 1021.67 1022.02 1022.32 1022.57 1022.76 1022.88 1022.96 1023.01 1023.04
1001.74 1002.22 1002.74 1003.29 1003.84 1004.43 1005.05 1005.72 1006.45 1007.23 1008.05 1008.87 1009.68 1010.45 1011.18 1011.87 1012.53 1013.17 1013.82 1014.48 1015.16 1015.84 1016.51 1017.14 1017.72 1018.23 1018.67 1019.06 1019.40 1019.73 1020.06 1020.41 1020.78 1021.17 1021.56 1021.93 1022.26 1022.53 1022.74 1022.88 1022.97 1023.02 1023.06
1002.04 1002.40 1002.79 1003.20 1003.63 1004.10 1004.64 1005.25 1005.94 1006.70 1007.51 1008.34 1009.16 1009.94 1010.68 1011.37 1012.04 1012.68 1013.33 1013.99 1014.66 1015.34 1016.01 1016.65 1017.23 1017.76 1018.22 1018.63 1019.00 1019.35 1019.71 1020.08 1020.47 1020.89 1021.30 1021.70 1022.06 1022.37 1022.61 1022.79 1022.91 1022.99 1023.04
1002.46 1002.69 1002.94 1003.20 1003.51 1003.88 1004.34 1004.90 1005.55 1006.30 1007.10 1007.92 1008.74 1009.52 1010.26 1010.95 1011.60 1012.24 1012.88 1013.52 1014.18 1014.85 1015.51 1016.14 1016.73 1017.26 1017.74 1018.16 1018.54 1018.91 1019.28 1019.66 1020.07 1020.50 1020.93 1021.35 1021.74 1022.09 1022.37 1022.59 1022.76 1022.87 1022.96
1002.92 1003.02 1003.13 1003.27 1003.46 1003.75 1004.14 1004.65 1005.28 1006.01 1006.79 1007.61 1008.41 1009.18 1009.91 1010.59 1011.23 1011.85 1012.47 1013.10 1013.75 1014.40 1015.05 1015.68 1016.26 1016.80 1017.27 1017.70 1018.09 1018.46 1018.84 1019.22 1019.63 1020.06 1020.50 1020.93 1021.34 1021.71 1022.03 1022.30 1022.51 1022.68 1022.81
1003.39 1003.35 1003.32 1003.35 1003.45 1003.67 1004.01 1004.50 1005.10 1005.81 1006.58 1007.38 1008.17 1008.92 1009.63 1010.29 1010.91 1011.52 1012.13 1012.75 1013.39 1014.04 1014.68 1015.30 1015.89 1016.42 1016.90 1017.32 1017.71 1018.08 1018.45 1018.82 1019.22 1019.63 1020.06 1020.49 1020.90 1021.28 1021.63 1021.92 1022.18 1022.39 1022.56
1003.82 1003.65 1003.50 1003.43 1003.46 1003.63 1003.94 1004.41 1005.00 1005.70 1006.45 1007.22 1007.99 1008.72 1009.40 1010.04 1010.65 1011.25 1011.86 1012.48 1013.12 1013.77 1014.41 1015.03 1015.62 1016.15 1016.62 1017.05 1017.43 1017.78 1018.13 1018.48 1018.85 1019.24 1019.65 1020.05 1020.45 1020.83 1021.18 1021.49 1021.77 1022.01 1022.22
1004.21 1003.91 1003.66 1003.51 1003.49 1003.63 1003.92 1004.37 1004.96 1005.64 1006.37 1007.12 1007.86 1008.56 1009.22 1009.85 1010.46 1011.06 1011.66 1012.30 1012.94 1013.60 1014.25 1014.87 1015.45 1015.98 1016.45 1016.86 1017.22 1017.56 1017.89 1018.21 1018.55 1018.91 1019.28 1019.65 1020.02 1020.38 1020.72 1021.02 1021.30 1021.56 1021.78
1004.57 1004.16 1003.82 1003.61 1003.56 1003.67 1003.95 1004.40 1004.97 1005.63 1006.34 1007.06 1007.78 1008.46 1009.10 1009.72 1010.33 1010.94 1011.56 1012.20 1012.85 1013.51 1014.16 1014.78 1015.36 1015.87 1016.32 1016.72 1017.06 1017.38 1017.68 1017.98 1018.29 1018.61 1018.95 1019.29 1019.63 1019.95 1020.26 1020.55 1020.81 1021.06 1021.29
1004.91 1004.41 1004.01 1003.76 1003.68 1003.78 1004.06 1004.49 1005.05 1005.69 1006.37 1007.07 1007.76 1008.42 1009.06 1009.68 1010.29 1010.90 1011.54 1012.18 1012.84 1013.50 1014.14 1014.74 1015.29 1015.78 1016.21 1016.58 1016.90 1017.20 1017.48 1017.76 1018.04 1018.34 1018.65 1018.96 1019.27 1019.57 1019.84 1020.10 1020.34 1020.56 1020.77
1005.26 1004.70 1004.27 1003.99 1003.90 1003.99 1004.26 1004.67 1005.21 1005.82 1006.48 1007.16 1007.82 1008.47 1009.10 1009.73 1010.34 1010.97 1011.61 1012.26 1012.90 1013.54 1014.15 1014.71 1015.23 1015.68 1016.07 1016.41 1016.71 1016.99 1017.26 1017.53 1017.81 1018.10 1018.39 1018.68 1018.97 1019.24 1019.49 1019.71 1019.92 1020.11 1020.30
1005.64 1005.05 1004.61 1004.33 1004.24 1004.33 1004.58 1004.98 1005.49 1006.07 1006.70 1007.35 1008.00 1008.63 1009.26 1009.89 1010.51 1011.14 1011.78 1012.41 1013.03 1013.63 1014.19 1014.70 1015.16 1015.56 1015.91 1016.22 1016.50 1016.77 1017.03 1017.30 1017.59 1017.88 1018.17 1018.46 1018.73 1018.99 1019.21 1019.42 1019.59 1019.76 1019.92
1006.05 1005.49 1005.06 1004.80 1004.72 1004.80 1005.04 1005.41 1005.89 1006.44 1007.04 1007.66 1008.29 1008.92 1009.55 1010.17 1010.80 1011.42 1012.03 1012.64 1013.22 1013.77 1014.27 1014.72 1015.11 1015.46 1015.77 1016.04 1016.30 1016.56 1016.83 1017.11 1017.41 1017.71 1018.02 1018.31 1018.58 1018.83 1019.04 1019.22 1019.38 1019.53 1019.66
1006.52 1006.01 1005.63 1005.40 1005.33 1005.42 1005.64 1005.98 1006.43 1006.94 1007.50 1008.10 1008.71 1009.32 1009.94 1010.56 1011.18 1011.78 1012.38 1012.94 1013.47 1013.96 1014.39 1014.78 1015.11 1015.40 1015.67 1015.92 1016.17 1016.42 1016.70 1017.00 1017.31 1017.62 1017.94 1018.24 1018.51 1018.75 1018.96 1019.13 1019.28 1019.41 1019.53
1007.05 1006.62 1006.30 1006.12 1006.07 1006.16 1006.36 1006.68 1007.08 1007.55 1008.08 1008.64 1009.22 1009.82 1010.43 1011.04 1011.64 1012.22 1012.77 1013.29 1013.77 1014.19 1014.56 1014.89 1015.17 1015.42 1015.65 1015.88 1016.13 1016.39 1016.67 1016.98 1017.30 1017.62 1017.94 1018.23 1018.50 1018.74 1018.93 1019.10 1019.24 1019.36 1019.47
1007.64 1007.31 1007.06 1006.93 1006.90 1006.98 1007.17 1007.45 1007.81 1008.24 1008.73 1009.25 1009.81 1010.38 1010.97 1011.55 1012.13 1012.67 1013.19 1013.66 1014.08 1014.46 1014.78 1015.05 1015.30 1015.52 1015.73 1015.95 1016.19 1016.45 1016.74 1017.04 1017.36 1017.67 1017.98 1018.26 1018.51 1018.73 1018.91 1019.06 1019.20 1019.32 1019.44
1008.31 1008.06 1007.89 1007.79 1007.78 1007.86 1008.02 1008.26 1008.58 1008.97 1009.41 1009.89 1010.41 1010.96 1011.51 1012.06 1012.60 1013.11 1013.59 1014.02 1014.39 1014.72 1015.01 1015.25 1015.47 1015.68 1015.88 1016.10 1016.34 1016.60 1016.87 1017.16 1017.46 1017.74 1018.02 1018.26 1018.48 1018.67 1018.83 1018.97 1019.10 1019.22 1019.34
1009.05 1008.87 1008.74 1008.67 1008.67 1008.73 1008.86 1009.06 1009.34 1009.67 1010.07 1010.51 1010.99 1011.49 1012.01 1012.52 1013.02 1013.50 1013.93 1014.32 1014.66 1014.96 1015.22 1015.45 1015.66 1015.86 1016.07 1016.28 1016.52 1016.76 1017.02 1017.28 1017.54 1017.78 1018.00 1018.20 1018.37 1018.52 1018.66 1018.78 1018.90 1019.02 1019.14
Thickness
5606 5604 5603 5602 5601 5600 5599 5598 5597 5596 5595 5594 5593 5591 5591 5592 5593 5594 5596 5597 5598 5600 5602 5604 5606 5608 5610 5611 5612 5611 5611 5610 5610 5609 5608 5610 5613 5613 5613 5611 5610 5609 5608
5599 5598 5596 5595 5593 5592 5591 5591 5589 5588 5586 5585 5585 5584 5584 5584 5585 5586 5587 5588 5590 5592 5593 5595 5596 5599 5601 5602 5603 5603 5602 5601 5601 5599 5598 5596 5599 5602 5604 5602 5602 5600 5599
5593 5592 5590 5588 5586 5585 5585 5584 5582 5581 5580 5578 5578 5577 5576 5576 5575 5576 5578 5580 5581 5583 5585 5586 5588 5590 5592 5593 5594 5595 5595 5592 5592 5592 5591 5588 5588 5588 5592 5593 5592 5591 5589
5589 5586 5584 5581 5579 5578 5577 5576 5574 5573 5572 5571 5570 5569 5568 5567 5568 5568 5569 5571 5573 5575 5576 5578 5580 5582 5584 5584 5584 5585 5585 5584 5583 5583 5583 5583 5583 5578 5577 5580 5581 5581 5580
5583 5581 5579 5576 5574 5572 5570 5568 5567 5566 5564 5563 5563 5562 5561 5560 5560 5560 5561 5562 5564 5566 5568 5570 5571 5573 5573 5574 5576 5575 5575 5574 5574 5574 5573 5573 5573 5571 5567 5567 5568 5569 5569
5578 5576 5573 5570 5567 5564 5563 5561 5560 5559 5557 5556 5555 5555 5554 5553 5552 5553 5552 5553 5555 5557 5559 5560 5562 5563 5564 5565 5566 5566 5565 5565 5565 5565 5564 5562 5562 5561 5559 5557 5556 5556 5557
5571 5568 5566 5563 5560 5558 5556 5555 5553 5551 5550 5548 5548 5548 5548 5546 5545 5545 5545 5545 5546 5548 5549 5551 5553 5554 5555 5555 5556 5556 5555 5555 5555 5555 5554 5553 5553 5552 5551 5548 5545 5545 5545
5563 5561 5558 5556 5554 5552 5550 5548 5546 5544 5543 5542 5541 5540 5541 5540 5538 5538 5538 5538 5539 5540 5542 5543 5544 5545 5546 5546 5546 5547 5546 5545 5545 5545 5544 5542 5542 5541 5539 5537 5533 5531 5532
5556 5554 5551 5549 5547 5545 5544 5542 5539 5537 5536 5535 5533 5533 5533 5532 5532 5531 5531 5531 5532 5533 5533 5535 5535 5536 5536 5536 5536 5536 5535 5535 5534 5533 5533 5532 5531 5530 5528 5526 5523 5519 5517
5549 5547 5545 5543 5541 5539 5537 5535 5533 5531 5529 5527 5526 5525 5524 5524 5524 5523 5523 5524 5524 5524 5524 5525 5526 5527 5526 5526 5525 5525 5525 5524 5524 5523 5521 5520 5519 5518 5516 5514 5511 5508 5505
5541 5538 5536 5535 5533 5531 5529 5526 5525 5523 5521 5520 5518 5517 5516 5516 5516 5516 5515 5515 5515 5515 5516 5516 5517 5517 5517 5516 5515 5515 5514 5513 5513 5512 5510 5508 5507 5505 5503 5500 5498 5496 5493
5532 5530 5528 5526 5524 5522 5520 5518 5517 5515 5514 5512 5510 5509 5509 5509 5508 5508 5507 5507 5507 5507 5507 5507 5507 5507 5507 5505 5505 5504 5502 5502 5501 5500 5498 5496 5494 5492 5490 5487 5485 5483 5481
5524 5521 5518 5517 5515 5514 5512 5511 5509 5508 5507 5505 5504 5502 5501 5501 5500 5499 5498 5498 5497 5498 5497 5497 5497 5497 5496 5495 5494 5493 5491 5491 5490 5488 5486 5484 5481 5479 5477 5475 5473 5471 5469
5514 5512 5509 5507 5506 5505 5504 5504 5502 5501 5500 5497 5495 5494 5493 5492 5490 5489 5489 5489 5489 5488 5488 5487 5487 5486 5486 5485 5484 5482 5480 5479 5478 5477 5475 5472 5470 5467 5465 5463 5461 5458 5455
5506 5504 5501 5499 5498 5497 5496 5495 5495 5493 5492 5490 5487 5486 5484 5483 5482 5481 5480 5480 5479 5479 5478 5477 5476 5475 5474 5474 5473 5471 5469 5468 5467 5465 5462 5460 5458 5456 5454 5452 5449 5446 5443
5497 5495 5494 5491 5489 5488 5487 5486 5485 5484 5484 5482 5480 5478 5476 5474 5473 5472 5471 5470 5469 5468 5468 5467 5466 5465 5464 5464 5462 5460 5458 5456 5454 5452 5450 5448 5446 5444 5443 5441 5439 5436 5433
5488 5486 5484 5482 5481 5479 5478 5476 5475 5475 5474 5473 5471 5469 5467 5465 5464 5463 5461 5460 5459 5458 5458 5457 5455 5454 5453 5452 5451 5448 5445 5444 5442 5440 5438 5436 5434 5432 5430 5429 5428 5426 5424
5479 5477 5475 5473 5472 5471 5470 5468 5466 5464 5463 5462 5461 5459 5457 5455 5454 5452 5451 5450 5449 5448 5446 5446 5444 5443 5442 5441 5439 5437 5435 5433 5431 5429 5427 5425 5423 5421 5419 5418 5417 5415 5414
5469 5467 5466 5464 5463 5462 5460 5459 5456 5454 5453 5452 5450 5449 5448 5445 5444 5442 5441 5440 5438 5437 5435 5435 5433 5432 5430 5428 5427 5425 5423 5422 5420 5418 5416 5414 5412 5411 5410 5408 5407 5406 5405
5458 5456 5455 5455 5453 5452 5451 5449 5446 5445 5443 5442 5441 5439 5438 5436 5434 5432 5431 5430 5428 5426 5425 5424 5422 5421 5419 5418 5416 5414 5412 5410 5409 5407 5405 5404 5402 5402 5400 5398 5396 5395 5395
5446 5445 5444 5443 5442 5441 5440 5438 5437 5435 5434 5432 5430 5429 5427 5425 5424 5422 5421 5419 5418 5416 5414 5413 5412 5410 5409 5407 5405 5403 5401 5399 5398 5396 5394 5393 5393 5392 5391 5389 5387 5387 5386
5433 5433 5432 5431 5431 5430 5429 5427 5426 5425 5423 5422 5420 5418 5416 5415 5414 5412 5410 5408 5407 5405 5403 5402 5401 5400 5398 5396 5395 5393 5391 5389 5387 5386 5385 5384 5383 5382 5381 5380 5379 5378 5377
5420 5420 5420 5419 5418 5418 5417 5415 5415 5414 5413 5411 5409 5408 5406 5405 5403 5401 5400 5398 5396 5394 5393 5391 5390 5389 5388 5386 5385 5383 5381 5380 5378 5377 5376 5375 5374 5373 5372 5371 5370 5369 5367
5407 5408 5408 5407 5406 5406 5405 5404 5404 5404 5403 5401 5400 5398 5396 5395 5393 5391 5390 5388 5386 5385 5383 5382 5380 5379 5377 5376 5374 5373 5371 5370 5368 5367 5367 5366 5365 5364 5363 5362 5360 5359 5357
5394 5395 5395 5395 5395 5395 5395 5394 5394 5393 5392 5391 5389 5388 5387 5385 5383 5382 5380 5379 5377 5376 5374 5373 5371 5369 5368 5368 5366 5364 5362 5361 5359 5358 5358 5356 5355 5354 5353 5352 5351 5349 5348
5382 5382 5383 5384 5384 5384 5383 5383 5383 5382 5381 5380 5379 5377 5376 5375 5373 5371 5370 5370 5368 5367 5366 5364 5362 5361 5361 5360 5358 5357 5355 5353 5352 5350 5349 5347 5346 5346 5344 5343 5342 5341 5340